Weather Roundup
Issued by NWS Chicago, IL

Home | Current Version | Previous Version | Text Only | Print | Product List | Glossary On
Versions: 1 2 3 4 5 6 7 8 9 10 11 12 13 14 15 16 17 18 19 20 21 22 23 24 25 26 27 28 29 30 31 32 33 34 35 36 37 38 39 40 41 42 43 44 45 46 47 48 49 50
000
NZUS59 KLOT 041008
HRRLOT

CHICAGO AREA WEATHER ROUNDUP
NATIONAL WEATHER SERVICE CHICAGO/ROMEOVILLE IL
500 AM CDT MON MAY 04 2015

NOTE: "FAIR" INDICATES FEW OR NO CLOUDS BELOW 12,000 FEET WITH NO
SIGNIFICANT WEATHER AND/OR OBSTRUCTIONS TO VISIBILITY.

* THESE STATIONS ARE NOT UNDER NWS QUALITY CONTROL. THEY ALSO MAY NOT
  REPORT WEATHER SUCH AS PRECIPITATION OR FOG.

ILZ005-006-012>014-019>023-041100-
NORTHEAST ILLINOIS

CITY           SKY/WX    TMP DP  RH WIND       PRES   REMARKS
OHARE          CLOUDY    61  53  75 S10       29.90F
MIDWAY         CLOUDY    64  53  67 S10       29.92F
AURORA         CLOUDY    60  54  80 S9        29.93F
LANSING*       LGT RAIN  60  52  77 SW10      29.96F
JOLIET*        CLOUDY    61  57  87 S6        29.95F
WAUKEGAN       CLOUDY    60  56  86 SW3       29.89S
DUPAGE AIRPORT CLOUDY    59  55  87 S10       29.90F
WHEELING       CLOUDY    61  54  77 SE3       29.90F
KANKAKEE*      CLOUDY    60  55  82 SW5       29.99F
MORRIS*        CLOUDY    60  57  88 S7        29.93F
LEWIS AIRPORT* CLOUDY    58  54  84 SW8       29.94F
NORTHERLY IS     N/A     64  51  62 SW8         N/A
$$

WIZ051-052-058>065-066-070>072-041100-
SOUTHEAST WISCONSIN

CITY           SKY/WX    TMP DP  RH WIND       PRES   REMARKS
MILWAUKEE      CLOUDY    61  53  75 NW6       29.89S
KENOSHA*       CLOUDY    59  55  87 NW3       29.89F
RACINE*        CLOUDY    61  53  75 W3        29.90S
BURLINGTON     CLOUDY    54  53  98 W3        29.91R FOG
WAUKESHA       CLOUDY    54  52  94 CALM      29.92R
WEST BEND      CLOUDY    59  55  88 SW3       29.89R
$$

INZ001>003-010>013-019-020-041100-
NORTHWEST INDIANA

CITY           SKY/WX    TMP DP  RH WIND       PRES   REMARKS
GARY*          CLOUDY    66 N/A N/A W12       29.96R
MICHIGAN CITY* NOT AVBL
RENSSELAER*    NOT AVBL
VALPARAISO     CLOUDY    63  49  60 SW10      29.98R
$$

LMZ740>746-041100-
SOUTHERN LAKE MICHIGAN

STATION/POSITION TIME  SKY/WX   TEMP WIND        PRES    VSBY
                                AIR  DIR/SP/G
                 (UTC)          (F)  (DEG/KT/KT) (MB)    (MI)
HARRISON CRIB    0900            66  230/ 18/ 23   N/A
BURNHAM HARBOR   1000            64  190/ 10/ 12   N/A
CALUMET HARBOR   0900            67  220/  7/ 13   N/A
BURNS HARBOR     0905            67  210/ 17/ 26 1014.6R
MICHIGAN CITY    0900            66  190/ 16/ 20   N/A
$$

ABBREVIATIONS USED IN REMARKS
   TC - TEMPERATURE IN CELSIUS
  WCI - WIND CHILL INDEX
   HX - HEAT INDEX
  VSB - VISIBILITY
$$



USA.gov is the U.S. government's official web portal to all federal, state and local government web resources and services.